Weather History for Sheridan, WY

Change the Weather History Date:

Saturday, November 16, 2013

  Actual Average Record
Temperature  
Mean Temperature 35 °F 32 °F  
Max Temperature 48 °F 46 °F 68 °F (1953)
Min Temperature 22 °F 19 °F -25 °F (1959)
Degree Days  
Heating Degree Days 30 33  
Month to date heating degree days 455 464  
Since 1 July heating degree days 1317 1372  
Cooling Degree Days 0 0  
Month to date cooling degree days 0 0  
Year to date cooling degree days 592 419  
Moisture  
Dew Point 26 °F    
Average Humidity 64    
Maximum Humidity 89    
Minimum Humidity 38    
Precipitation  
Precipitation 0.02 in 0.03 in 0.50 in (1969)
Month to date precipitation 0.09 0.41  
Year to date precipitation 16.81 13.30  
Sea Level Pressure  
Sea Level Pressure 29.38 in    
Wind  
Wind Speed 7 mph (NW)    
Max Wind Speed 28 mph    
Max Gust Speed 36 mph    
Visibility 8 miles    
Events Snow    
T = Trace of Precipitation, MM = Missing Value Source: NWS Daily Summary

Daily Weather History Graph

Daily Weather History Graph

Search for Another Location

Airport:

Trip Planner

Search our weather history database for the weather conditions in past years. The results will help you decide how hot, cold, wet, or windy it might be!

Date:

Astronomy

Nov. 16, 2013 Rise Set
Actual Time 7:06 AM MST 4:38 PM MST
Civil Twilight 6:34 AM MST 5:10 PM MST
Nautical Twilight 5:59 AM MST 5:45 PM MST
Astronomical Twilight 5:24 AM MST 6:20 PM MST
Moon 4:17 PM MST (11/16) 6:03 AM MST (11/16)
Length of Visible Light 10h 35m
Length of Day
9h 31m
Waxing Gibbous, 99% of the Moon is Illuminated
Nov 16
Waxing Gibbous
Nov 17
Full
Nov 25
Last Quarter
Dec 2
New
Dec 9
First Quarter

Hourly Weather History & Observations

Time (MST) Temp. Windchill Dew Point Humidity Pressure Visibility Wind Dir Wind Speed Gust Speed Precip Events Conditions
12:53 AM 26.1 °F 21.9 °F 21.0 °F 81% 29.40 in 10.0 mi South 3.5 mph - N/A   Partly Cloudy
1:53 AM 24.1 °F 16.0 °F 19.9 °F 84% 29.39 in 10.0 mi SSW 6.9 mph - N/A   Partly Cloudy
2:53 AM 30.0 °F 26.5 °F 23.0 °F 75% 29.34 in 10.0 mi Variable 3.5 mph - N/A   Mostly Cloudy
3:53 AM 30.0 °F 26.5 °F 23.0 °F 75% 29.32 in 10.0 mi Variable 3.5 mph - N/A   Mostly Cloudy
4:53 AM 30.9 °F - 25.0 °F 79% 29.37 in 10.0 mi Calm Calm - N/A   Overcast
5:53 AM 28.9 °F 21.9 °F 24.1 °F 82% 29.36 in 10.0 mi NNW 6.9 mph - N/A   Overcast
6:53 AM 30.0 °F 26.5 °F 25.0 °F 82% 29.39 in 10.0 mi NNW 3.5 mph - N/A   Overcast
7:53 AM 30.0 °F 26.5 °F 25.0 °F 82% 29.39 in 10.0 mi South 3.5 mph - N/A   Overcast
8:53 AM 30.9 °F 23.5 °F 26.1 °F 82% 29.37 in 10.0 mi South 8.1 mph - N/A   Mostly Cloudy
9:53 AM 35.1 °F 32.2 °F 27.0 °F 72% 29.35 in 10.0 mi SSE 3.5 mph - N/A   Overcast
10:53 AM 39.0 °F - 26.1 °F 60% 29.34 in 10.0 mi Calm Calm - N/A   Partly Cloudy
11:53 AM 44.1 °F 40.1 °F 25.0 °F 47% 29.29 in 10.0 mi East 6.9 mph - N/A   Clear
12:53 PM 45.0 °F 40.6 °F 23.0 °F 42% 29.27 in 10.0 mi NE 8.1 mph - N/A   Clear
1:53 PM 46.9 °F - 23.0 °F 39% 29.26 in 10.0 mi NNE 4.6 mph - N/A   Clear
2:53 PM 46.0 °F 43.9 °F 25.0 °F 44% 29.26 in 10.0 mi North 4.6 mph - N/A   Clear
3:53 PM 39.9 °F 35.1 °F 27.0 °F 60% 29.32 in 10.0 mi NNW 6.9 mph - N/A   Mostly Cloudy
4:53 PM 37.9 °F 32.7 °F 24.1 °F 57% 29.34 in 10.0 mi West 6.9 mph - N/A   Scattered Clouds
5:53 PM 35.1 °F 31.0 °F 24.1 °F 64% 29.37 in 10.0 mi West 4.6 mph - N/A   Clear
6:53 PM 39.9 °F 35.1 °F 21.0 °F 47% 29.35 in 10.0 mi ENE 6.9 mph - N/A   Clear
7:53 PM 30.9 °F 27.5 °F 21.9 °F 69% 29.39 in 10.0 mi NNW 3.5 mph - N/A   Clear
8:53 PM 32.0 °F 23.6 °F 23.0 °F 69% 29.41 in 10.0 mi NNW 10.4 mph - N/A   Clear
9:53 PM 33.1 °F 20.6 °F 30.0 °F 89% 29.45 in 10.0 mi NW 23.0 mph - N/A   Overcast
10:49 PM 32.0 °F 19.5 °F 30.2 °F 93% 29.42 in 1.8 mi WNW 21.9 mph 31.1 mph 0.00 in Snow Light Snow
10:53 PM 32.0 °F 19.8 °F 30.0 °F 92% 29.47 in 1.5 mi WNW 20.7 mph 31.1 mph 0.00 in Snow Light Snow
11:13 PM 30.9 °F 17.2 °F 28.9 °F 92% 29.43 in 1.2 mi WNW 25.3 mph 34.5 mph 0.00 in Snow Light Snow
11:31 PM 30.9 °F 19.1 °F 28.9 °F 92% 29.45 in 0.8 mi WNW 18.4 mph 26.5 mph 0.01 in Snow Light Snow
11:38 PM 30.9 °F 19.1 °F 28.9 °F 92% 29.45 in 0.8 mi WNW 18.4 mph - 0.02 in Snow Light Snow
11:50 PM 30.2 °F 20.2 °F 28.4 °F 93% 29.45 in 1.2 mi WNW 12.7 mph - 0.02 in Snow Light Snow
11:53 PM 30.9 °F 21.7 °F 28.9 °F 92% 29.49 in 1.8 mi WNW 11.5 mph - 0.02 in Snow Light Snow